Hourly Data Report for October 18, 2015

All times are specified in Local Standard Time (LST). Add 1 hour to adjust for Daylight Saving Time where and when it is observed.

KAMLOOPS A
BRITISH COLUMBIA

50°42'09.000" N
120°26'55.000" W
345.30 m
1163781
71887
YKA

Download Data

Hourly Data (October 2015)
Hourly Data Report for October 18, 2015
Temp Definition
°C
Dew Point Temp Definition
°C
Rel Hum Definition
%
Wind Dir Definition
10's deg

Wind Spd Definition
km/h
Visibility Definition
km
Stn Press Definition
kPa
Hmdx Definition


Wind Chill Definition


Weather Definition


TIME
00:00 Legend Double Dagger 11.5 7.6 77 9 8 64.4 97.13     LegendNANA
01:00 Legend Double Dagger 10.6 8.2 85 10 8 64.4 97.15     Cloudy
02:00 Legend Double Dagger 11.3 8.7 84 14 5 64.4 97.18     LegendNANA
03:00 Legend Double Dagger 10.2 8.8 91 17 3 64.4 97.19     LegendNANA
04:00 Legend Double Dagger 10.0 8.6 91 8 3 64.4 97.22     Cloudy
05:00 Legend Double Dagger 10.2 8.8 91 9 10 64.4 97.23     LegendNANA
06:00 Legend Double Dagger 10.4 9.0 91 36 1 64.4 97.25     LegendNANA
07:00 Legend Double Dagger 10.3 8.7 90 0 1 64.4 97.29     Mostly Cloudy
08:00 Legend Double Dagger 10.8 9.2 90 36 1 64.4 97.35     LegendNANA
09:00 Legend Double Dagger 11.9 9.0 82 10 8 64.4 97.37     LegendNANA
10:00 Legend Double Dagger 12.7 8.2 74 9 8 64.4 97.35     Mostly Cloudy
11:00 Legend Double Dagger 15.0 8.5 65 16 4 64.4 97.33     LegendNANA
12:00 Legend Double Dagger 15.0 8.3 64 11 11 64.4 97.26     LegendNANA
13:00 Legend Double Dagger 17.2 9.0 58 14 8 64.4 97.19     Mostly Cloudy
14:00 Legend Double Dagger 17.9 10.1 60 8 10 64.4 97.09     LegendNANA
15:00 Legend Double Dagger 18.1 10.6 61 11 19 64.4 97.05     LegendNANA
16:00 Legend Double Dagger 17.5 11.4 67 11 15 64.4 97.03     Mostly Cloudy
17:00 Legend Double Dagger 16.3 10.9 70 11 18 64.4 97.02     LegendNANA
18:00 Legend Double Dagger 15.0 10.5 74 9 18 64.4 97.04     LegendNANA
19:00 Legend Double Dagger 14.1 10.0 76 10 18 64.4 97.07     Mainly Clear
20:00 Legend Double Dagger 13.6 9.7 77 8 17 64.4 97.08     LegendNANA
21:00 Legend Double Dagger 13.7 10.0 78 9 14 64.4 97.08     LegendNANA
22:00 Legend Double Dagger 13.4 9.9 79 36 3 64.4 97.10     Mostly Cloudy
23:00 Legend Double Dagger 12.2 9.8 85 22 5 64.4 97.10     LegendNANA

Notes on Data Quality.

Legend

  • E = Estimated
  • M = Missing
  • NA = Not Available
  • ‡ = Partner data that is not subject to review by the National Climate Archives
Date modified: